Change the Weather History Date:

Monday, January 6, 2014

  Actual Average Record
Temperature  
Mean Temperature 0 °F -  
Max Temperature 15 °F 31 °F 53 °F (1998)
Min Temperature -16 °F 18 °F -16 °F (2014)
Degree Days  
Heating Degree Days 65    
Moisture  
Dew Point -3 °F    
Average Humidity 77    
Maximum Humidity 88    
Minimum Humidity 62    
Precipitation  
Precipitation 0.00 in - - ()
Sea Level Pressure  
Sea Level Pressure 29.83 in    
Wind  
Wind Speed 17 mph (West)    
Max Wind Speed 28 mph    
Max Gust Speed 36 mph    
Visibility 4 miles    
Events Snow    
Averages and records for this station are not official NWS values.
T = Trace of Precipitation, MM = Missing Value Source: NWS Daily Summary

Daily Weather History Graph

Daily Weather History Graph

Search for Another Location

Airport or City:

Trip Planner

Search our weather history database for the weather conditions in past years. The results will help you decide how hot, cold, wet, or windy it might be!

Date:

Astronomy

Jan. 06, 2014 Rise Set
Actual Time 8:05 AM EST 5:17 PM EST
Civil Twilight 7:34 AM EST 5:49 PM EST
Nautical Twilight 6:58 AM EST 6:25 PM EST
Astronomical Twilight 6:24 AM EST 6:59 PM EST
Moon 11:12 AM EST (1/6) 11:59 PM EST (1/6)
Length of Visible Light 10h 15m
Length of Day
9h 12m
Waxing Crescent, 34% of the Moon is Illuminated
Jan 6
Waxing Crescent
Jan 7
First Quarter
Jan 15
Full
Jan 24
Last Quarter
Jan 30
New

Hourly Weather History & Observations

Time (EST) Temp. Windchill Dew Point Humidity Pressure Visibility Wind Dir Wind Speed Gust Speed Precip Events Conditions
12:15 AM 16.7 °F 1.5 °F 13.8 °F 88% 29.60 in 3.0 mi NW 16.1 mph 26.5 mph N/A Snow Light Snow
12:35 AM 16.2 °F 0.3 °F 13.1 °F 88% 29.61 in 5.0 mi NW 17.3 mph 23.0 mph N/A Snow Light Snow
12:55 AM 15.8 °F -0.2 °F 12.9 °F 88% 29.62 in 1.5 mi NW 17.3 mph 26.5 mph N/A Snow Light Snow
1:15 AM 15.4 °F -1.1 °F 12.4 °F 88% 29.63 in 2.0 mi NW 18.4 mph 23.0 mph N/A Snow Light Snow
1:35 AM 15.3 °F 0.8 °F 12.2 °F 88% 29.63 in 2.0 mi NW 13.8 mph 24.2 mph N/A Snow Light Snow
1:54 AM 14.9 °F -1.3 °F 11.7 °F 87% 29.63 in 2.5 mi NW 17.3 mph 27.6 mph N/A Snow Light Snow
2:15 AM 14.0 °F -1.4 °F 10.8 °F 87% 29.65 in 3.0 mi WNW 15.0 mph 24.2 mph N/A Snow Light Snow
2:35 AM 13.3 °F -3.9 °F 10.4 °F 88% 29.66 in 4.0 mi WNW 18.4 mph 27.6 mph N/A Snow Light Snow
2:55 AM 12.9 °F -1.6 °F 9.5 °F 86% 29.68 in 7.0 mi WNW 12.7 mph 20.7 mph N/A Snow Light Snow
3:15 AM 13.1 °F -4.6 °F 9.5 °F 86% 29.68 in 5.0 mi WNW 19.6 mph 25.3 mph N/A Snow Light Snow
3:35 AM 12.9 °F -2.8 °F 8.8 °F 84% 29.69 in 7.0 mi WNW 15.0 mph 25.3 mph N/A Snow Light Snow
3:55 AM 12.4 °F -1.6 °F 8.2 °F 83% 29.70 in 7.0 mi WNW 11.5 mph 21.9 mph N/A Snow Light Snow
4:14 AM 12.2 °F -3.7 °F 7.7 °F 82% 29.70 in 10.0 mi WNW 15.0 mph - N/A   Overcast
4:35 AM 12.0 °F -3.4 °F 7.7 °F 83% 29.71 in 10.0 mi WNW 13.8 mph 18.4 mph N/A Snow Light Snow
4:55 AM 11.8 °F -4.2 °F 7.2 °F 81% 29.71 in 10.0 mi WNW 15.0 mph 19.6 mph N/A   Overcast
5:15 AM 12.0 °F -2.7 °F 7.5 °F 82% 29.72 in 5.0 mi West 12.7 mph - N/A Snow Light Snow
5:35 AM 12.0 °F -2.0 °F 7.3 °F 81% 29.73 in 10.0 mi West 11.5 mph - N/A   Overcast
5:55 AM 11.8 °F -1.5 °F 6.8 °F 80% 29.73 in 10.0 mi West 10.4 mph - N/A   Overcast
6:15 AM 11.7 °F -1.7 °F 6.8 °F 81% 29.73 in 10.0 mi West 10.4 mph - N/A   Overcast
6:35 AM 11.3 °F -2.2 °F 6.8 °F 82% 29.73 in 10.0 mi West 10.4 mph - N/A   Overcast
6:55 AM 11.3 °F -0.4 °F 6.6 °F 81% 29.74 in 10.0 mi West 8.1 mph - N/A   Overcast
7:15 AM 11.3 °F 0.7 °F 6.4 °F 81% 29.75 in 10.0 mi West 6.9 mph - N/A   Overcast
7:35 AM 11.3 °F -0.4 °F 6.6 °F 81% 29.76 in 7.0 mi West 8.1 mph - N/A Snow Light Snow
7:55 AM 10.6 °F -6.9 °F 6.1 °F 82% 29.77 in 1.8 mi WSW 17.3 mph 27.6 mph N/A Snow Light Snow
8:15 AM 8.8 °F -9.8 °F 4.3 °F 82% 29.77 in 2.0 mi WSW 18.4 mph 28.8 mph N/A   Haze
8:35 AM 8.2 °F -11.5 °F 3.2 °F 80% 29.78 in 1.5 mi WSW 20.7 mph 29.9 mph N/A   Haze
8:55 AM 7.2 °F -12.9 °F 2.3 °F 80% 29.80 in 0.8 mi WSW 20.7 mph 34.5 mph N/A Snow Light Snow
9:15 AM 6.8 °F -12.9 °F 2.3 °F 82% 29.80 in 0.8 mi WSW 19.6 mph 28.8 mph N/A Snow Light Snow
9:35 AM 6.6 °F -12.1 °F 2.3 °F 82% 29.80 in 0.2 mi WSW 17.3 mph 23.0 mph N/A Snow Light Snow
9:55 AM 6.1 °F -16.1 °F 1.9 °F 83% 29.81 in 0.5 mi WSW 25.3 mph 32.2 mph N/A Snow Snow
10:15 AM 5.9 °F -13.0 °F 0.5 °F 78% 29.81 in 1.0 mi West 17.3 mph 27.6 mph N/A   Haze
10:35 AM 5.2 °F -13.9 °F 0.1 °F 80% 29.82 in 0.5 mi WSW 17.3 mph 31.1 mph N/A Snow Light Snow
10:55 AM 4.3 °F -18.1 °F -0.6 °F 80% 29.82 in 0.8 mi WSW 24.2 mph 32.2 mph N/A Snow Light Snow
11:15 AM 4.1 °F -17.9 °F -1.3 °F 78% 29.83 in 0.5 mi West 23.0 mph 31.1 mph N/A Snow Light Snow
11:35 AM 3.7 °F -16.4 °F -2.2 °F 76% 29.82 in 0.5 mi West 18.4 mph 35.7 mph N/A Snow Light Snow
11:54 AM 3.6 °F -16.0 °F -2.6 °F 76% 29.81 in 0.8 mi West 17.3 mph 35.7 mph N/A Snow Light Snow
12:15 PM 3.2 °F -19.5 °F -3.3 °F 74% 29.81 in 0.8 mi WSW 24.2 mph 32.2 mph N/A Snow Light Snow
12:34 PM 3.4 °F -19.7 °F -3.6 °F 73% 29.80 in 0.8 mi WSW 25.3 mph 35.7 mph N/A Snow Light Snow
12:55 PM 3.7 °F -15.8 °F -2.6 °F 75% 29.80 in 1.0 mi WSW 17.3 mph 33.4 mph N/A Snow Light Snow
1:15 PM 3.7 °F -18.3 °F -2.6 °F 75% 29.80 in 0.8 mi WSW 23.0 mph 29.9 mph N/A   Haze
1:35 PM 3.6 °F -17.1 °F -2.2 °F 77% 29.81 in 0.5 mi West 19.6 mph 28.8 mph N/A Snow Light Snow
1:55 PM 3.9 °F -17.1 °F -3.6 °F 71% 29.81 in 1.8 mi West 20.7 mph 29.9 mph N/A   Haze
2:15 PM 3.7 °F -20.0 °F -5.6 °F 65% 29.81 in 1.2 mi West 27.6 mph 34.5 mph N/A Snow Light Snow
2:35 PM 3.6 °F -20.2 °F -5.4 °F 66% 29.82 in 1.2 mi West 27.6 mph 35.7 mph N/A Snow Light Snow
2:55 PM 3.0 °F -20.6 °F -6.7 °F 64% 29.83 in 0.8 mi West 26.5 mph 34.5 mph N/A Snow Light Snow
3:15 PM 2.7 °F -21.1 °F -7.8 °F 62% 29.85 in 1.5 mi West 26.5 mph 35.7 mph N/A   Haze
3:35 PM 1.9 °F -19.2 °F -8.1 °F 63% 29.87 in 1.0 mi West 19.6 mph 33.4 mph N/A   Haze
3:55 PM 1.2 °F -20.7 °F -7.2 °F 68% 29.88 in 1.2 mi West 20.7 mph 31.1 mph N/A   Haze
4:15 PM 0.5 °F -23.5 °F -7.6 °F 69% 29.89 in 1.8 mi West 25.3 mph 32.2 mph N/A   Haze
4:35 PM 0.1 °F -22.6 °F -8.5 °F 67% 29.90 in 2.5 mi West 21.9 mph 33.4 mph N/A   Haze
4:55 PM -0.4 °F -22.8 °F -8.9 °F 67% 29.91 in 2.5 mi West 20.7 mph 28.8 mph N/A   Haze
5:15 PM -0.8 °F -22.8 °F -10.5 °F 63% 29.92 in 7.0 mi West 19.6 mph 24.2 mph N/A   Overcast
5:35 PM -1.7 °F -23.4 °F -7.6 °F 76% 29.93 in 1.2 mi WSW 18.4 mph 25.3 mph N/A Snow Light Snow
5:54 PM -3.3 °F -23.6 °F -8.7 °F 78% 29.94 in 1.2 mi WSW 15.0 mph 28.8 mph N/A Snow Light Snow
6:15 PM -5.1 °F -27.2 °F -10.5 °F 78% 29.95 in 1.2 mi SW 17.3 mph 25.3 mph N/A Snow Light Snow
6:35 PM -6.7 °F -29.3 °F -12.8 °F 75% 29.96 in 2.5 mi SW 17.3 mph 24.2 mph N/A   Haze
6:55 PM -8.0 °F -30.3 °F -14.4 °F 73% 29.98 in 2.5 mi SW 16.1 mph 27.6 mph N/A   Haze
7:14 PM -9.4 °F -34.1 °F -16.1 °F 73% 29.99 in 4.0 mi WSW 19.6 mph 26.5 mph N/A   Haze
7:35 PM -10.5 °F -32.8 °F -17.7 °F 71% 30.00 in 7.0 mi WSW 15.0 mph 21.9 mph N/A   Mostly Cloudy
7:55 PM -12.1 °F -34.1 °F -19.3 °F 70% 30.01 in 7.0 mi SW 13.8 mph 19.6 mph N/A   Overcast
8:15 PM -12.8 °F -35.8 °F -20.0 °F 70% 30.01 in 7.0 mi WSW 15.0 mph 20.7 mph N/A   Overcast
8:35 PM -13.4 °F -33.8 °F -20.4 °F 71% 30.01 in 7.0 mi SW 11.5 mph 23.0 mph N/A   Overcast
8:54 PM -14.1 °F -36.6 °F -20.7 °F 72% 30.02 in 7.0 mi SW 13.8 mph 21.9 mph N/A   Mostly Cloudy
9:15 PM -14.8 °F -38.3 °F -22.0 °F 70% 30.01 in 10.0 mi WSW 15.0 mph 20.7 mph N/A   Clear
9:35 PM -15.7 °F -35.7 °F -22.7 °F 71% 30.02 in 10.0 mi SW 10.4 mph - N/A   Clear
9:55 PM -15.7 °F -36.8 °F -22.9 °F 70% 30.02 in 7.0 mi SW 11.5 mph 18.4 mph N/A   Clear
10:14 PM -16.1 °F -36.2 °F -22.7 °F 72% 30.02 in 7.0 mi SW 10.4 mph 17.3 mph N/A   Clear
10:35 PM -16.1 °F -36.2 °F -22.9 °F 71% 30.02 in 10.0 mi SW 10.4 mph - N/A   Clear
10:55 PM -16.1 °F -37.2 °F -22.9 °F 71% 30.01 in 7.0 mi SW 11.5 mph - N/A   Mostly Cloudy
11:15 PM -16.4 °F -36.6 °F -23.3 °F 71% 30.01 in 10.0 mi SW 10.4 mph - N/A   Scattered Clouds
11:35 PM -16.6 °F -35.7 °F -23.1 °F 72% 30.01 in 10.0 mi SW 9.2 mph - N/A   Clear
11:55 PM -16.2 °F -32.5 °F -22.9 °F 72% 30.02 in 10.0 mi SW 6.9 mph - N/A   Clear